Location: Menands
(42.6920°N, 73.7246°W)
Time: 02:48:54
(UTC+00:00)

Cosmos 2298 Rocket - Pass Details

Date: 18 February 2026
Orbit: 774 x 780 km, 74.0° (Epoch: 5 March)

Event Time Altitude Azimuth Distance (km) Brightness Sun altitude
Rises 23:18:26 0° 339° (NNW) 3,262 7.5 -9.4°
Reaches altitude 10° 23:20:49 10° 339° (NNW) 2,332 6.7 -9.9°
Maximum altitude 23:26:07 84° 252° (WSW) 786 4.1 -10.8°
Drops below altitude 10° 23:31:24 10° 164° (SSE) 2,320 6.4 -11.8°
Sets 23:33:46 0° 164° (SSE) 3,245 7.1 -12.2°
